FW7322 Weather Reports


Display with metric or nautical units.
time (UTC)temp
F
wind
direction
speed
MPH
gust
MPH
rain 1hr
in
rain 24hr
in
rain mn
in
humidity
%
barometer
mb
20260505053122 62 86 0.0 1.0 0.00 0.00 0.00 60 1031.7
20260505052518 62 72 0.0 4.0 0.00 0.00 0.00 60 1031.7
20260505052018 62 70 0.0 4.0 0.00 0.00 0.00 59 1031.6
20260505051533 62 85 1.0 3.0 0.00 0.00 0.00 59 1031.7
20260505051021 63 82 0.0 3.0 0.00 0.00 0.00 59 1031.7
20260505050517 63 103 0.0 4.0 0.00 0.00 0.00 59 1031.8
20260505041511 62 105 0.0 6.0 0.00 0.00 0.00 57 1031.5
20260505041011 62 84 1.0 6.0 0.00 0.00 0.00 57 1031.3
20260505040510 63 90 0.0 5.0 0.00 0.00 0.00 57 1031.3
20260505040013 63 86 2.0 5.0 0.00 0.00 0.00 57 1031.2
20260505035508 62 96 1.0 3.0 0.00 0.00 0.00 57 1031.3
20260505035008 63 254 0.0 6.0 0.00 0.00 0.00 57 1031.3
20260505034513 63 81 1.0 6.0 0.00 0.00 0.00 56 1031.2
20260505034009 62 102 0.0 4.0 0.00 0.00 0.00 56 1031.2
20260505033508 63 73 0.0 4.0 0.00 0.00 0.00 56 1031.3
20260505033008 62 87 1.0 4.0 0.00 0.00 0.00 56 1031.3
20260505032508 62 357 0.0 3.0 0.00 0.00 0.00 56 1031.3
20260505032007 63 104 0.0 4.0 0.00 0.00 0.00 56 1031.3
20260505031507 63 94 0.0 4.0 0.00 0.00 0.00 56 1031.2
20260505031007 63 101 0.0 3.0 0.00 0.00 0.00 55 1031.4
20260505030508 63 90 0.0 2.0 0.00 0.00 0.00 55 1031.3
20260505030007 63 123 0.0 3.0 0.00 0.00 0.00 55 1031.2
20260505025511 63 79 0.0 3.0 0.00 0.00 0.00 55 1031.4
20260505025008 64 93 0.0 4.0 0.00 0.00 0.00 54 1031.3
20260505024510 64 93 0.0 4.0 0.00 0.00 0.00 53 1031.3
20260505024006 64 86 0.0 4.0 0.00 0.00 0.00 53 1031.4
20260505023506 64 91 0.0 5.0 0.00 0.00 0.00 53 1031.5
20260505023006 65 105 0.0 5.0 0.00 0.00 0.00 53 1031.5
20260505022506 65 91 0.0 4.0 0.00 0.00 0.00 53 1031.5
20260505022006 65 248 0.0 6.0 0.00 0.00 0.00 53 1031.6
20260505021506 65 89 1.0 6.0 0.00 0.00 0.00 52 1031.6
20260505021005 65 101 0.0 7.0 0.00 0.00 0.00 52 1031.5
20260505020505 65 89 1.0 9.0 0.00 0.00 0.00 52 1031.5
20260505020007 65 68 0.0 9.0 0.00 0.00 0.00 52 1031.4
20260505015507 65 99 0.0 4.0 0.00 0.00 0.00 52 1031.5
20260505015005 66 85 0.0 5.0 0.00 0.00 0.00 51 1031.5
20260505014505 66 109 0.0 7.0 0.00 0.00 0.00 51 1031.4
20260505014009 66 96 1.0 7.0 0.00 0.00 0.00 51 1031.4
20260505013504 66 103 1.0 4.0 0.00 0.00 0.00 51 1031.4
20260505013004 66 84 0.0 5.0 0.00 0.00 0.00 51 1031.4
20260505012504 66 70 2.0 5.0 0.00 0.00 0.00 51 1031.3
20260505012006 66 93 1.0 6.0 0.00 0.00 0.00 51 1031.3
20260505011504 66 116 1.0 6.0 0.00 0.00 0.00 51 1031.1
20260505011003 66 94 0.0 5.0 0.00 0.00 0.00 52 1031.2
20260505010503 66 105 1.0 5.0 0.00 0.00 0.00 51 1031.2
20260505010002 66 82 0.0 7.0 0.00 0.00 0.00 51 1031.1
20260505005504 66 75 1.0 7.0 0.00 0.00 0.00 51 1031.0
20260505005003 66 96 0.0 7.0 0.00 0.00 0.00 51 1031.1
20260505004507 66 93 0.0 7.0 0.00 0.00 0.00 50 1031.0
20260505004002 67 101 1.0 5.0 0.00 0.00 0.00 50 1031.0
20260505003502 67 65 1.0 6.0 0.00 0.00 0.00 50 1030.9
20260505003005 67 126 0.0 6.0 0.00 0.00 0.00 50 1031.0
20260505002501 67 110 1.0 9.0 0.00 0.00 0.00 49 1030.9
20260505002001 67 161 0.0 13.0 0.00 0.00 0.00 50 1031.0
20260505001609 67 136 1.0 13.0 0.00 0.00 0.00 49 1030.8
20260505001501 67 266 0.0 13.0 0.00 0.00 0.00 48 1030.9
20260505001100 68 240 1.0 13.0 0.00 0.00 0.00 49 1030.9
20260505000604 68 271 1.0 6.0 0.00 0.00 0.00 48 1030.8
20260504235558 68 99 1.0 5.0 0.00 0.00 0.00 47 1030.9
20260504235058 69 117 0.0 6.0 0.00 0.00 0.00 47 1030.7
20260504234557 69 108 1.0 6.0 0.00 0.00 0.00 47 1030.7
20260504234057 69 236 2.0 7.0 0.00 0.00 0.00 46 1030.6
20260504233557 69 115 2.0 9.0 0.00 0.00 0.00 46 1030.6
20260504233108 70 16 2.0 9.0 0.00 0.00 0.00 45 1030.5
20260504232556 70 125 2.0 6.0 0.00 0.00 0.00 45 1030.6
20260504232056 70 237 0.0 4.0 0.00 0.00 0.00 46 1030.7
20260504231604 70 95 1.0 9.0 0.00 0.00 0.00 44 1030.5
20260504231055 70 273 3.0 9.0 0.00 0.00 0.00 44 1030.5
20260504230555 71 252 1.0 11.0 0.00 0.00 0.00 43 1030.5
20260504230058 71 127 3.0 11.0 0.00 0.00 0.00 43 1030.5
20260504225556 71 174 1.0 7.0 0.00 0.00 0.00 44 1030.3
20260504225057 72 167 2.0 9.0 0.00 0.00 0.00 41 1030.3
20260504224555 72 34 0.0 9.0 0.00 0.00 0.00 42 1030.3
20260504224055 73 75 2.0 12.0 0.00 0.00 0.00 41 1030.3
20260504223555 73 69 2.0 12.0 0.00 0.00 0.00 41 1030.2
20260504223054 73 101 2.0 7.0 0.00 0.00 0.00 40 1030.3
20260504222555 73 85 1.0 9.0 0.00 0.00 0.00 40 1030.2
20260504222058 74 83 2.0 9.0 0.00 0.00 0.00 41 1030.1
20260504221554 74 79 1.0 9.0 0.00 0.00 0.00 40 1030.2
20260504221053 74 188 1.0 9.0 0.00 0.00 0.00 40 1030.2
20260504220553 74 86 1.0 9.0 0.00 0.00 0.00 41 1030.3
20260504220053 74 113 2.0 7.0 0.00 0.00 0.00 41 1030.2
20260504215553 74 131 1.0 8.0 0.00 0.00 0.00 39 1030.3
20260504215052 74 284 2.0 9.0 0.00 0.00 0.00 40 1030.4
20260504214555 73 82 3.0 13.0 0.00 0.00 0.00 40 1030.5
20260504214051 74 94 2.0 14.0 0.00 0.00 0.00 40 1030.6
20260504213551 73 70 3.0 14.0 0.00 0.00 0.00 41 1030.7
20260504213051 73 137 2.0 14.0 0.00 0.00 0.00 41 1030.6
20260504212550 73 95 2.0 9.0 0.00 0.00 0.00 41 1030.6
20260504212050 73 92 2.0 12.0 0.00 0.00 0.00 41 1030.6
20260504211549 74 352 2.0 19.0 0.00 0.00 0.00 41 1030.6
20260504211052 74 113 3.0 19.0 0.00 0.00 0.00 39 1030.8
20260504210549 74 264 0.0 10.0 0.00 0.00 0.00 41 1030.7
20260504210104 73 72 3.0 10.0 0.00 0.00 0.00 43 1030.9
20260504205548 73 96 2.0 7.0 0.00 0.00 0.00 42 1030.9
20260504205048 73 337 2.0 12.0 0.00 0.00 0.00 42 1030.8
20260504204556 73 77 2.0 12.0 0.00 0.00 0.00 41 1030.9
20260504204046 74 229 3.0 8.0 0.00 0.00 0.00 38 1031.0
20260504203545 73 242 2.0 14.0 0.00 0.00 0.00 42 1031.1
20260504203101 73 40 3.0 14.0 0.00 0.00 0.00 41 1031.1
20260504202545 73 120 4.0 14.0 0.00 0.00 0.00 41 1031.1
20260504202045 73 70 4.0 14.0 0.00 0.00 0.00 41 1031.2
20260504201544 74 84 4.0 12.0 0.00 0.00 0.00 43 1031.3
20260504201044 73 79 3.0 12.0 0.00 0.00 0.00 41 1031.3
20260504200543 74 120 2.0 11.0 0.00 0.00 0.00 42 1031.5
20260504200043 73 227 2.0 11.0 0.00 0.00 0.00 41 1031.6
20260504195543 73 117 5.0 11.0 0.00 0.00 0.00 40 1031.5
20260504195042 74 78 2.0 12.0 0.00 0.00 0.00 41 1031.7
20260504194541 74 205 3.0 12.0 0.00 0.00 0.00 40 1031.8
20260504194040 73 83 1.0 8.0 0.00 0.00 0.00 44 1031.9
20260504193539 73 82 2.0 12.0 0.00 0.00 0.00 42 1032.0
20260504193038 73 119 3.0 12.0 0.00 0.00 0.00 43 1032.0
20260504192537 73 84 5.0 11.0 0.00 0.00 0.00 39 1032.1
20260504192041 73 85 4.0 9.0 0.00 0.00 0.00 41 1032.2
20260504191535 73 102 1.0 12.0 0.00 0.00 0.00 43 1032.2
20260504191035 72 121 4.0 12.0 0.00 0.00 0.00 43 1032.3
20260504190537 72 87 3.0 13.0 0.00 0.00 0.00 44 1032.3
20260504190047 72 107 4.0 13.0 0.00 0.00 0.00 42 1032.5
20260504185534 72 94 3.0 9.0 0.00 0.00 0.00 42 1032.4
20260504185033 72 96 2.0 9.0 0.00 0.00 0.00 45 1032.6
20260504184534 72 86 1.0 17.0 0.00 0.00 0.00 42 1032.6
20260504184031 71 86 1.0 17.0 0.00 0.00 0.00 44 1032.7
20260504183530 71 33 1.0 17.0 0.00 0.00 0.00 44 1032.8
20260504183033 71 83 4.0 17.0 0.00 0.00 0.00 47 1032.9
20260504182531 70 107 2.0 12.0 0.00 0.00 0.00 46 1032.8
20260504182031 70 178 5.0 12.0 0.00 0.00 0.00 45 1032.8
20260504181526 70 91 4.0 11.0 0.00 0.00 0.00 45 1033.1
20260504181026 70 10 3.0 11.0 0.00 0.00 0.00 42 1033.2
20260504180529 70 99 3.0 10.0 0.00 0.00 0.00 41 1033.2
20260504180024 70 66 3.0 10.0 0.00 0.00 0.00 49 1033.4
20260504175523 70 123 1.0 10.0 0.00 0.00 0.00 46 1033.4
20260504175023 69 100 4.0 10.0 0.00 0.00 0.00 43 1033.6
20260504174523 69 101 2.0 8.0 0.00 0.00 0.00 46 1033.5
20260504174023 69 92 0.0 5.0 0.00 0.00 0.00 44 1033.6
20260504173522 69 103 3.0 11.0 0.00 0.00 0.00 43 1033.7
20260504173021 70 127 2.0 11.0 0.00 0.00 0.00 48 1033.8
20260504172521 70 79 1.0 13.0 0.00 0.00 0.00 48 1033.7
20260504172021 70 122 2.0 13.0 0.00 0.00 0.00 47 1033.8
20260504171520 70 67 1.0 9.0 0.00 0.00 0.00 50 1033.9
20260504171023 69 79 3.0 9.0 0.00 0.00 0.00 47 1033.9
20260504170519 69 94 2.0 12.0 0.00 0.00 0.00 46 1033.9
20260504151100 64 95 2.0 11.0 0.00 0.00 0.00 48 1035.7
20260504150600 63 82 4.0 12.0 0.00 0.00 0.00 43 1035.7
20260504141052 62 91 1.0 9.0 0.00 0.00 0.00 45 1036.1
20260504140550 61 89 2.0 10.0 0.00 0.00 0.00 44 1036.0
20260504130535 53 86 0.0 4.0 0.00 0.00 0.00 64 1036.6
20260504110522 42 90 0.0 0.0 0.00 0.00 0.00 77 1037.3
20260504100518 37 90 0.0 0.0 0.00 0.00 0.00 81 1037.0
20260504081604 44 91 0.0 0.0 0.00 0.00 0.00 69 1037.5
20260504081057 44 91 0.0 2.0 0.00 0.00 0.00 68 1037.5
20260504080557 45 91 0.0 3.0 0.00 0.00 0.00 67 1037.4